Location: Unspecified
(40.7945°N, 0.0000°E)
Time: 13:19:49
(UTC+00:00)

Courier 1B - Pass Details

Date: 26 January 2021
Orbit: 962 x 1209 km, 28.3° (Epoch: 24 February)

Event Time Altitude Azimuth Distance (km) Brightness Sun altitude
Rises 00:52:13 0° 250° (WSW) 3,709 - -66.3°
Reaches altitude 10° 00:55:20 10° 238° (WSW) 2,730 - -66.1°
Maximum altitude 01:00:41 27° 183° (S) 1,767 - -65.6°
Drops below altitude 10° 01:05:56 10° 128° (SE) 2,684 - -65.1°
Sets 01:08:58 0° 116° (ESE) 3,635 - -64.8°
